Вернуться в каталог

DELTA 1 DEB

АктивенSSO
NORAD 12181·DEBRIS·🇺🇸 United States

Запущен Mar 5, 1978 с Vandenberg Space Force Base

Loading…

Ближайшие Пролёты (ближайшие 24 часа)

TLE

СвежийSource: Space-Track

Эпоха: Sep 14, 2026, 11:23 UTC

1 12181U 78026W   26257.47440496  .00000129  00000-0  68674-4 0  9993
2 12181  98.8482 269.1385 0098480  20.0150 340.4850 14.26754131369360

Отслеживайте DELTA 1 DEB в реальном времени с AllMySat

Download on the App Store